SCP
0 0 0 0 0 0 0 0 0 0 0 0 0 0 0 0 0 0 0 0 0 0 0 0 0 0 0 0 0 0 0 0 0 0 0 0 0 0 0 0 0 0 0
0 0 0 0 0 0 0 0 0 0 0 0 0 0 0 0 0 0 0 0 0 0 0 0 0 0 0 0 0 0 0 0 0 0 0 0 0 0 0 0 0 0 0
0 0 0 0 0 0 0 0 0 0 0 0 0 0 0 0 0 0 0 0 0 0 0 0 0 0 0 0 0 0 0 0 0 0 0 0 0 0 0 0 0 0 0
0 0 0 0 0 0 0 0 0 0 0 0 0 0 0 0 0 0 0 0 0 0 0 0 0 0 0 0 0 0 0 0 0 0 0 0 0 0 0 0 0 0 0
0 0 0 0 0 0 0 0 0 0 0 0 0 0 0 0 0 0 0 0 0 0 0 0 0 0 0 0 0 0 0 0 0 0 0 0 0 0 0 0 0 0 0
0 0 0 0 0 0 0 0 0 0 0 0 0 0 0 0 0 0 0 0 0 0 0 0 0 0 0 0 0 0 0 0 0 0 0 0 0 0 0 0 0 0 0
0 0 0 0 0 0 0 0 0 0 0 0 0 0 0 0 0 0 0 0 0 0 0 0 0 0 0 0 0 0 0 0 0 0 0 0 0 0 0 0 0 0 0
0 0 0 0 0 0 0 0 0 0 0 0 0 0 0 0 0 0 0 0 0 0 0 0 0 0 0 0 0 0 0 0 0 0 0 0 0 0 0 0 0 0 0
0 0 0 0 0 0 0 0 0 0 0 0 0 0 0 0 0 0 0 0 0 0 0 0 0 0 0 0 0 0 0 0 0 0 0 0 0 0 0 0 0 0 0
0 0 0 0 0 0 0 0 0 0 0 0 0 0 0 0 0 0 0 0 0 0 0 0 0 0 0 0 0 0 0 0 0 0 0 0 0 0 0 0 0 0 0
0 0 0 0 0 0 0 0 0 0 0 0 0 0 0 0 0 0 0 0 0 0 0 0 0 0 0 0 0 0 0 0 0 0 0 0 0 0 0 0 0 0 0
0 0 0 0 0 0 0 0 0 0 0 0 0 0 0 0 0 0 0 0 0 0 0 0 0 0 0 0 0 0 0 0 0 0 0 0 0 0 0 0 0 0 0
0 0 0 0 0 0 0 0 0 0 0 0 0 0 0 0 0 0 0 0 0 0 0 0 0 0 0 0 0 0 0 0 0 0 0 0 0 0 0 0 0 0 0
0 0 0 0 0 0 0 0 0 0 0 0 0 0 0 0 0 0 0 0 0 0 0 0 0 0 0 0 0 0 0 0 0 0 0 0 0 0 0 0 0 0 0
0 0 0 0 0 0 0 0 0 0 0 0 0 0 0 0 0 0 0 0 0 0 0 0 0 0 0 0 0 0 0 0 0 0 0 0 0 0 0 0 0 0 0
0 0 0 0 0 0 0 0 0 0 0 0 0 0 0 0 0 0 0 0 0 0 0 0 0 0 0 0 0 0 0 0 0 0 0 0 0 0 0 0 0 0 0
0 0 0 0 0 0 0 0 0 0 0 0 0 0 0 0 0 0 0 0 0 0 0 0 0 0 0 0 0 0 0 0 0 0 0 0 0 0 0 0 0 0 0
0 0 0 0 0 0 0 0 0 0 0 0 0 0 0 0 0 0 0 0 0 0 0 0 0 0 1 1 0 0 0 0 0 0 0 0 0 0 0 0 0 0 0
0 0 0 0 0 0 0 0 0 0 0 0 0 0 0 0 0 0 0 0 0 0 0 0 0 0 0 1 1 0 0 0 0 0 0 0 0 0 0 0 0 0 0
0 0 0 0 0 0 0 0 0 0 0 0 0 0 0 0 0 0 0 0 0 0 0 0 0 0 0 0 0 0 0 0 0 0 0 0 0 0 0 0 0 0 0
0 0 1 0 0 0 0 0 0 0 0 0 0 0 0 0 0 0 0 0 0 0 0 0 0 0 0 0 0 0 0 0 0 0 0 0 0 0 0 0 0 0 0
1 1 1 1 0 0 0 0 0 0 0 1 1 0 0 0 0 0 0 0 0 0 0 0 0 0 0 0 0 0 0 0 0 0 0 0 0 0 0 0 0 0 0
1 1 1 1 0 0 0 0 0 0 0 1 1 0 0 0 0 0 0 0 0 0 0 0 0 0 0 0 0 0 0 0 0 0 0 0 0 0 0 0 0 0 0
1 1 1 1 1 0 0 0 0 0 0 0 0 0 0 0 0 0 0 0 0 0 0 0 0 0 0 0 0 0 0 0 0 0 0 0 0 0 0 0 0 0 0
1 1 1 1 1 0 0 0 0 0 0 0 0 0 0 0 0 0 0 0 0 0 0 0 0 0 0 0 0 0 0 0 0 0 0 0 0 0 0 0 0 0 0
1 1 1 1 0 0 0 0 0 0 0 0 0 0 0 0 0 0 0 0 0 0 0 0 0 0 0 0 0 0 0 0 0 0 0 0 0 0 0 0 0 0 0
Wind_Speed
3 4 2 2 2 2 2 1 1 2 1 0 1 2 3 3 5 7 6 11 10 9 9 8 8 8 8 8 8 7 7 7 7 6 7 7 7 7 7 6 6 6 6
4 4 3 2 2 2 2 1 2 2 0 0 1 2 2 3 4 6 7 8 10 9 8 8 8 8 8 8 8 7 8 7 7 6 6 6 6 7 7 6 6 6 6
5 4 4 3 2 2 2 1 2 2 2 2 1 2 2 2 3 4 6 6 6 8 9 8 8 8 8 8 8 8 8 7 7 7 7 7 6 6 6 6 6 6 6
5 4 3 3 3 3 2 2 1 1 1 1 1 1 2 2 3 3 3 5 5 6 8 10 9 8 8 8 8 8 8 8 8 8 8 8 8 7 7 6 6 7 6
6 3 3 3 3 2 2 2 2 1 1 1 2 2 2 2 3 4 3 4 4 5 6 8 10 9 9 9 9 9 9 8 8 9 9 9 9 8 8 8 7 7 7
5 3 3 4 3 2 2 1 2 1 1 1 2 2 2 3 3 3 3 4 4 5 6 7 6 7 10 9 9 9 9 9 9 9 9 9 9 8 8 8 8 8 8
5 3 3 3 2 2 2 3 2 2 2 1 0 1 2 3 3 3 2 2 3 4 4 6 5 4 5 9 9 9 9 9 9 9 9 9 8 8 8 9 9 9 9
5 5 4 4 3 2 2 2 1 1 2 2 1 1 1 1 2 4 3 3 3 3 4 6 5 5 4 4 6 10 9 9 9 9 8 8 8 8 8 9 9 9 9
5 3 5 3 3 3 3 3 2 2 1 1 1 0 0 1 2 2 4 3 3 2 2 4 5 5 5 4 5 8 9 8 9 9 8 8 7 7 7 8 9 9 10
6 5 5 4 3 2 4 4 4 2 2 2 2 1 1 1 0 1 2 3 4 3 2 2 4 4 4 4 5 8 9 8 7 8 8 8 8 8 8 8 9 9 9
5 6 5 4 3 2 3 2 2 1 1 2 1 1 2 1 2 1 2 2 2 3 4 3 3 3 4 5 5 8 10 9 7 7 6 7 7 7 8 8 9 9 9
4 6 5 4 4 3 3 3 2 2 1 2 2 1 1 1 2 2 2 3 3 3 4 3 4 4 4 5 8 12 12 10 9 8 7 7 7 7 7 8 9 9 9
5 6 6 4 4 3 4 3 3 2 2 2 2 2 2 2 1 1 1 1 1 2 3 3 4 4 4 4 5 13 12 12 10 9 8 8 8 8 8 8 8 9 9
5 6 6 5 4 4 5 4 3 4 3 3 4 2 2 3 2 1 1 1 1 2 3 4 4 5 4 4 8 12 8 12 12 11 10 9 8 8 8 8 8 8 8
6 7 7 6 6 5 4 4 3 3 3 3 4 4 3 3 2 2 2 1 1 2 2 3 2 4 4 4 9 7 5 11 13 12 11 11 10 9 9 9 9 9 9
5 7 7 6 6 5 5 4 4 3 3 3 3 3 3 3 2 2 2 2 2 2 2 1 2 3 4 5 9 6 6 11 14 13 13 13 12 12 11 11 10 10 10
5 6 6 6 6 6 6 5 5 4 5 5 5 4 4 4 3 3 2 2 2 2 3 3 2 1 3 3 4 4 4 5 8 15 16 15 14 14 13 13 12 12 12
6 6 6 6 7 7 6 6 6 6 6 6 6 5 5 5 5 4 3 3 2 2 2 4 2 1 2 4 5 5 5 6 6 13 17 17 16 16 15 14 14 13 13
6 6 6 6 6 5 6 6 6 6 6 6 5 5 5 5 5 4 4 4 3 4 3 3 4 3 2 4 4 5 6 5 7 8 13 16 16 16 16 16 15 15 14
6 6 6 5 5 5 4 5 6 5 5 5 5 5 5 5 5 4 5 4 4 4 4 3 4 3 3 4 3 4 4 4 5 7 6 9 13 17 17 17 16 16 16
6 5 4 4 4 4 5 5 5 6 5 5 5 5 5 5 5 4 4 3 4 4 4 4 4 4 3 2 3 3 4 4 5 5 4 4 5 6 9 13 16 17 17
4 4 4 4 4 4 3 3 3 4 4 4 5 5 5 5 5 6 6 6 4 5 5 4 4 4 4 3 3 3 3 3 4 3 2 4 4 5 6 7 12 17 18
4 3 4 4 3 0 0 2 3 3 3 3 3 4 5 5 4 4 6 9 8 8 7 5 6 6 5 4 3 4 4 4 5 3 3 5 4 5 5 7 10 13 16
3 3 3 2 2 1 0 1 2 2 2 2 2 2 2 3 3 2 4 5 5 5 7 7 6 7 6 4 4 4 5 5 6 5 5 6 6 6 6 5 8 11 13
3 2 2 3 3 3 3 3 2 1 1 2 1 2 1 1 2 3 3 4 4 4 6 8 8 9 9 9 6 3 4 5 7 6 4 5 6 5 5 5 6 9 11
3 3 3 4 5 5 6 6 3 1 1 1 0 1 3 2 3 3 2 3 4 4 4 5 6 7 8 9 10 7 6 6 6 6 4 4 5 4 5 4 4 4 5
Wind_Direction
149 130 120 138 163 150 162 201 119 89 78 166 153 107 71 80 102 113 131 144 144 150 153 154 156 158 161 161 161 163 163 161 158 158 160 161 161 161 158 154 155 151 146
133 125 136 159 158 148 140 158 130 131 163 65 68 94 95 95 102 126 141 151 155 159 163 164 164 165 169 173 174 175 173 174 171 170 173 172 170 172 172 171 169 167 163
137 144 151 174 157 130 132 152 152 161 176 163 125 122 122 105 123 130 143 154 163 171 173 175 177 176 177 181 183 182 180 181 181 183 184 184 182 181 182 184 185 182 180
146 155 158 159 147 148 155 140 197 187 145 140 138 171 134 140 139 158 162 162 166 171 181 185 185 184 186 189 191 189 188 189 189 192 193 194 194 193 193 195 197 195 194
154 163 141 130 162 160 162 181 152 138 144 155 168 172 169 161 154 188 174 172 168 163 167 182 187 188 194 198 199 197 194 192 193 199 202 203 202 201 201 203 203 202 202
158 162 142 149 178 158 141 97 99 109 160 230 226 163 186 164 177 181 189 180 174 173 169 170 178 195 201 202 202 201 198 197 200 203 207 210 209 206 206 207 208 208 208
155 169 138 144 172 144 144 151 148 191 217 203 200 185 197 190 179 174 186 170 175 171 168 160 177 178 187 203 204 203 205 207 207 208 211 212 212 209 209 211 212 212 213
160 170 144 165 166 144 148 156 146 215 232 184 197 200 191 189 211 186 166 182 185 175 178 175 171 173 182 172 195 201 206 209 211 211 211 211 211 210 210 213 216 216 218
167 155 153 166 165 164 161 181 192 205 245 235 211 214 206 179 187 189 189 175 171 186 185 165 176 176 182 169 170 194 200 204 211 214 213 211 211 212 216 218 220 222 224
163 160 160 161 166 167 158 192 190 199 206 247 228 205 211 126 184 164 200 169 175 180 201 211 178 173 175 158 169 171 180 187 197 208 213 211 211 214 220 224 228 229 229
168 167 163 162 171 186 163 171 147 188 223 246 259 220 202 197 235 195 195 180 188 187 188 197 176 183 177 163 170 171 176 180 186 196 204 211 215 220 226 231 234 236 236
174 169 167 168 182 181 158 150 161 194 244 304 317 306 233 218 229 220 200 200 195 194 183 179 180 185 188 177 186 171 175 180 185 191 201 211 218 224 229 233 236 239 241
177 174 173 174 184 167 161 168 183 222 212 242 281 295 304 278 277 273 217 231 210 183 176 185 190 189 198 164 159 167 178 183 189 196 205 214 221 227 232 234 237 241 244
174 163 168 175 184 182 184 177 199 204 201 220 246 259 303 299 304 292 281 270 256 227 197 203 186 185 185 154 167 175 182 189 195 201 209 216 222 227 232 236 240 242 245
166 163 172 178 187 191 187 175 218 217 182 208 239 229 238 274 268 277 286 274 258 267 247 210 178 184 171 152 162 187 185 195 201 206 212 219 223 227 231 235 237 239 241
173 162 176 180 186 186 190 195 215 209 201 220 239 249 231 266 272 262 269 275 269 271 276 260 213 187 179 178 172 194 206 196 204 209 215 220 224 227 229 232 234 235 238
170 175 184 185 189 189 192 199 219 208 209 221 233 229 223 254 284 294 267 257 258 256 267 275 257 193 163 170 163 213 216 199 206 215 219 221 222 225 228 231 233 235 237
181 185 190 190 197 198 194 198 219 221 215 219 228 232 226 232 233 262 283 278 264 255 254 277 278 262 207 192 186 213 232 230 225 219 216 219 220 223 226 230 232 234 236
188 193 193 195 203 202 199 203 215 225 226 225 223 225 228 233 234 237 247 267 273 264 232 250 263 251 236 216 203 218 238 249 256 247 218 218 222 225 227 229 231 233 235
191 197 194 197 201 206 208 211 216 220 226 230 228 228 229 228 227 236 245 249 264 273 267 258 262 255 242 231 206 214 239 241 251 261 246 223 221 225 230 233 234 235 236
193 193 188 193 200 210 220 218 218 221 218 229 233 230 231 229 224 221 244 245 256 259 263 258 260 263 256 244 230 225 241 250 241 236 243 238 220 222 228 235 238 238 237
187 182 185 186 198 219 227 215 221 238 221 227 239 240 240 229 220 220 235 245 246 251 259 263 264 263 265 260 256 254 253 262 265 247 241 259 244 235 231 226 231 231 232
180 180 184 184 186 231 285 189 208 238 242 235 243 248 253 255 225 223 231 237 243 242 237 253 268 274 283 290 292 286 281 277 270 277 286 274 266 260 251 256 246 233 230
168 174 170 162 144 103 68 203 232 225 257 270 269 266 258 292 311 297 261 246 241 241 236 234 246 259 269 281 276 273 274 275 269 263 251 262 265 264 270 265 263 254 241
157 159 147 134 114 74 65 59 31 271 290 301 319 338 332 309 335 318 281 273 264 260 250 245 240 246 250 256 254 262 265 266 271 269 256 257 263 269 269 271 274 267 256
122 116 115 107 100 83 64 57 29 355 343 333 345 39 52 37 3 353 312 290 279 284 291 287 266 260 255 253 242 234 247 258 267 271 267 271 274 279 278 268 274 279 267